Warning: Javascript must be enabled to use all the features on this page!


Page Loading - Please Wait...

* We've detected you're using a mobile device. Find our Next Generation Station Page here.
Click to hideNews Bulletins

Peak Streamflow for the Nation

USGS 05040500 PELICAN RIVER NEAR FERGUS FALLS, MN

Otter Tail County, Minnesota
Hydrologic Unit Code 09020103
Latitude  46°20'10", Longitude  96°07'10" NAD27
Drainage area 482.00  square miles
Gage datum 1,176.98 feet above NGVD29
Output formats
Table
Graph
Tab-separated file
peakfq (watstore) format
Reselect output format
Water
Year
Date Gage
Height
(feet)
Stream-
flow
(cfs)
1910 1909-10-11 6.96 303
1911 1911-05-08 6.26 124
1912 1912-05-28 6.70 230
1943 1943-03-29 5.53 756
1944 1944-06-05 2.862 212
1945 1945-03-17 4.202 330
1946 1946-05-16 2.872 212
1947 1947-06-07 2.822 218
1948 1948-04-09   1981,2
1949 1949-04-03   2401,2
1950 1950-05-06 3.222 296
1951 1951-04-07 4.082 177
1952 1952-04-14 3.612 388
1953 1953-06-15 4.85 680
1954 1954-07-02 3.601,2 242
1955 1955-04-04 2.952 250
1956 1956-04-13 3.392 315
1957 1957-04-20 2.712 216
1958 1958-07-07 2.662 125
1959 1959-05-31 2.502 164
1960 1960-04-27 2.732 206
1961 1961-04-24 2.332 135
1962 1962-05-24 3.452 365
1963 1963-03-29 4.112 230
1964 1964-05-08 4.472 274
1965 1965-04-09 6.342 551
1966 1966-04-01 4.732 560
1967 1967-03-30 6.991 655
1968 1968-05-15 4.052 194
1969 1969-04-12 5.302 710
1970 1970-06-20 4.382 350
1971 1971-07-03 4.162 251
1972 1972-05-30 4.602 420
1973 1973-03-25 3.972 163
1974 1974-04-12 6.081 725
1975 1975-04-19 6.721 585
1976 1976-03-26 5.111,2 186
1977 1977-05-14 3.702 129
1978 1978-04-06 5.411,2 635
1979 1979-04-18 5.082 610
1980 1980-04-05 5.861,2 495
?
  Peak Gage-Height Qualification Codes.
?
  Peak Streamflow Qualification Codes.